Preview of NWS' New Version of Forecast
This preview is not operational and should not be used for support decisions.

Regional Weather Roundup (RWR)

Issued by National Weather Service (NWS)

                            
000
ASUS42 KTBW 160517
RWRFL 
FLORIDA REGIONAL WEATHER ROUNDUP
NATIONAL WEATHER SERVICE TAMPA BAY RUSKIN FL
100 AM EDT MON SEP 16 2019

NOTE: "FAIR" INDICATES FEW OR NO CLOUDS BELOW 12,000 FEET WITH NO
SIGNIFICANT WEATHER AND/OR OBSTRUCTIONS TO VISIBILITY.

FLZ001>010-012>015-112-114-115-160600-
PANHANDLE FLORIDA
  
CITY           SKY/WX    TMP DP  RH WIND       PRES   REMARKS
PENSACOLA      FAIR      80  74  81 N3        29.99F                  
PENSACOLA NAS  FAIR      77  75  93 N3        29.99F                  
CRESTVIEW      FAIR      72  67  84 CALM      30.01F                  
DUKE FIELD     FAIR      72  66  83 CALM      29.99F                  
VALPARAISO     FAIR      80  66  61 NE3       29.99S                  
MARY ESTHER    CLEAR     76  69  79 CALM      29.98S                  
TRI COUNTY     FAIR      72  68  87 CALM      30.01S                  
PANAMA CITY    FAIR      75  69  81 CALM      29.98F                  
TYNDALL AFB    FAIR      82  70  66 CALM      29.99S                  
APALACHICOLA   FAIR      80  75  84 CALM      29.98S                  

STATION/POSITION SKY/WX   TEMP    WIND        PRES    WAVE   SWELL
                          AIR SEA DIR/SP/G            HT/PER HT/PER
                          (F)     (DEG/KT/KT) (MB)    (FT/S) (FT/S)
30.1N   87.6W              85 86   10/  4/  6 1015.6F   3/ 7   3/ 7
29.2N   88.2W              84      80/ 10/ 14 1015.3F   5/ 6   3/ 6
28.8N   86.0W                 85  110/ 10/ 12 1014.9R   2/ 6   2/ 6
PANAMA CITY BEAC           82 86   30/  3/  4 1016.0
TOWER C                    84     130/  6/  8 1015.6R
28.5N   84.5W              85      60/ 14/ 17 1015.2F   3/ 4

$$
FLZ011-016>038-118-127-128-134-139-239-160600-
NORTH FLORIDA
  
CITY           SKY/WX    TMP DP  RH WIND       PRES   REMARKS
MARIANNA       FAIR      75  70  84 CALM      29.99F                  
TALLAHASSEE    FAIR      79  71  76 E5        29.99F                  
PERRY          FAIR      75  74  97 CALM      30.00S                  
LIVE OAK       CLEAR     73  73 100 CALM      29.99S                  
CROSS CITY     FAIR      74  72  95 CALM      29.98S                  
LAKE CITY      FAIR      73  70  88 N6        29.99S                  
GAINESVILLE    FAIR      76  72  87 N5        29.99S                  
WILLISTON      FAIR      73  73  98 N3        29.97S                  
PALATKA        FAIR      75  73  94 NW6       29.96S                  
MAYPORT NAS    FAIR      82  76  81 N16       29.95F                  
JACKSONVILLE   FAIR      77  74  90 NW6       29.96S                  
JAX NAS        FAIR      80  75  84 N12       29.96F                  
JAX CECIL      FAIR      75  73  94 N6        29.97S                  
FERNANDINA BEA MOCLDY    81  77  87 N12       29.96F                  
ST AUGUSTINE   MOCLDY   N/A N/A N/A N15       29.95S                  
PALM COAST     FAIR      80  75  85 N7        29.92F                  

STATION/POSITION SKY/WX   TEMP    WIND        PRES    WAVE   SWELL
                          AIR SEA DIR/SP/G            HT/PER HT/PER
                          (F)     (DEG/KT/KT) (MB)    (FT/S) (FT/S)
SHELL POINT      NOT AVBL
KEATON BEACH               77      40/  2/  3 1015.6R
CEDAR KEY                  79      20/  5/  6 1015.2F
FERNANDINA                 86 83  360/ 10/ 14 1015.4F
30.7N   81.3W                 83                N/A     7/10   3/11
MAYPORT                    82 83   20/ 15/ 19 1014.8F
31.4N   80.9W              82 83   40/ 19/ 21 1013.9F   6/11   3/11
ST AUGUSTINE               82 83  360/ 20/ 22 1013.7F

$$
FLZ040-043>046-052-053-057-058-063-144-160600-
INTERIOR CENTRAL FLORIDA
  
CITY           SKY/WX    TMP DP  RH WIND       PRES   REMARKS
OCALA          FAIR      75  74  96 N6        29.97F                  
LEESBURG       FAIR      79  75  87 NW7       29.96S                  
SANFORD        FAIR      79  75  87 NW10      29.92F                  
ORLANDO EXEC   FAIR      79  74  84 NW8       29.93F                  
ORLANDO INTL   FAIR      79  74  84 NW12      29.93S                  
KISSIMMEE      FAIR      80  75  84 NW8       29.94F                  
WINTER HAVEN   FAIR      79  74  84 NW5       29.96S                  
LAKELAND       PTCLDY    77  75  94 CALM      29.96F                  
BARTOW         FAIR      79  75  89 W6        29.94F                  
SEBRING        FAIR      76  75  97 NW5       29.95S                  
OKEECHOBEE       N/A     77  73  88 W6        29.93S                  

$$
FLZ041-047-054-059-064-141-147-160600-
EAST CENTRAL FLORIDA
  
CITY           SKY/WX    TMP DP  RH WIND       PRES   REMARKS
DAYTONA BEACH  FAIR      81  76  84 N10       29.91F                  
DELAND         FAIR      77  75  94 NW7       29.93S                  
JFK SPACE CTR  MOCLDY    81  77  87 N8        29.89S                  
CAPE CANAVERAL MOCLDY    82  80  94 NW10      29.88S                  
PATRICK AFB    FAIR      80  80  98 W12       29.90S                  
MELBOURNE      FAIR      78  75  90 W8        29.91R                  
VERO BEACH     FAIR      79  74  84 W8        29.91S                  
FT PIERCE      FAIR      77  73  87 W8        29.91S                  
STUART         FAIR      77  73  88 W7        29.94R                  

STATION/POSITION SKY/WX   TEMP    WIND        PRES    WAVE   SWELL
                          AIR SEA DIR/SP/G            HT/PER HT/PER
                          (F)     (DEG/KT/KT) (MB)    (FT/S) (FT/S)
28.5N   80.2W              82 85  320/ 17/ 23 1011.7R
28.9N   78.5W              81 81  310/ 27/ 35 1006.1R  14/ 9
TRIDENT PIER               81 84  320/ 10/ 13 1013.8S
28.4N   80.5W                 83                N/A     4/10   2/11
27.5N   80.2W                 83                N/A     6/11   3/11

$$
FLZ050-056-061-142-242-148-248-149-249-151-251-155-255-
160-260-160600-
WEST CENTRAL FLORIDA
  
CITY           SKY/WX    TMP DP  RH WIND       PRES   REMARKS
CRYSTAL RIVER  FAIR      77  73  88 N3        29.96F                  
INVERNESS      FAIR      77  77 100 N6        29.97S                  
BROOKSVILLE    FAIR      76  73  91 CALM      29.97S                  
CLEARWATER AIR FAIR      79  73  83 CALM      29.96S                  
ST PETE CLEARW FAIR      81  74  79 N7        29.96S                  
TAMPA INTL     MOCLDY    78  75  90 N3        29.97S                  
TAMPA EXEC     FAIR      75  75 100 CALM      29.97R                  
PLANT CITY     FAIR      77  77 100 NW3       29.98S                  
MACDILL AFB    FAIR      77  74  90 NE3       29.95F                  
PETER O KNIGHT FAIR     N/A N/A N/A NE5       29.96F                  
ST PETERSBURG  FAIR      81  76  84 MISG      29.94S                  
SARASOTA       FAIR      81  76  84 N3        29.93F                  
VENICE         FAIR      79  75  89 CALM      29.96S                  

STATION/POSITION SKY/WX   TEMP    WIND        PRES    WAVE   SWELL
                          AIR SEA DIR/SP/G            HT/PER HT/PER
                          (F)     (DEG/KT/KT) (MB)    (FT/S) (FT/S)
27.3N   84.2W                 84                N/A     2/ 6
CLEARWATER BEACH           82 86   30/  5/  6 1014.7
MIDDLE TAMPA BAY           82      20/ 12/ 14 1014.6F
VENICE                     79 86   70/  1/  2 1014.3S

$$
FLZ066-069-070-075>078-162-262-165-265-160600-
SOUTHWEST FLORIDA AND KEYS
  
CITY           SKY/WX    TMP DP  RH WIND       PRES   REMARKS
PUNTA GORDA    FAIR      78  77  96 CALM      29.96S                  
FT MYERS       FAIR      79  73  82 W5        29.94S                  
SOUTHWEST INTL FAIR      78  73  84 CALM      29.95S                  
NAPLES         FAIR      83  74  74 CALM      29.95S                  
MARCO ISLAND     N/A    N/A N/A N/A CALM      29.96S                  
IMMOKALEE      CLOUDY    77  73  88 CALM      29.93S                  
MARATHON       FAIR      84  77  79 SW3       29.95F                  
KEY WEST NAS   FAIR      84  77  79 SW6       29.97S                  
KEY WEST INTL  FAIR      84  77  79 W6        29.97S                  

STATION/POSITION SKY/WX   TEMP    WIND        PRES    WAVE   SWELL
                          AIR SEA DIR/SP/G            HT/PER HT/PER
                          (F)     (DEG/KT/KT) (MB)    (FT/S) (FT/S)
NAPLES                     82 87   50/  2/  3 1014.3S
26.0N   85.6W              84 86  110/  6/  8 1014.7F   4/ 7   3/ 7
DRY TORTUGAS               84     280/  5/  5 1015.0F
SOMBRERO KEY               85     250/  8/ 11 1014.8F
LONG KEY                   85                 1013.5F

$$
FLZ067-068-071>074-168-172>174-160600-
SOUTHEAST FLORIDA 
  
CITY           SKY/WX    TMP DP  RH WIND       PRES   REMARKS
W PALM BEACH   MOCLDY    80  75  84 W8        29.93R                  
FT LAUDER-EXEC FAIR      79  76  90 W7        29.94R                  
FT LAUDERDALE  FAIR      80  75  84 W8        29.94R                  
POMPANO BEACH  FAIR      81  76  84 W6        29.94R                  
PEMBROKE PINES FAIR      82  74  76 W8        29.96R                  
OPA LOCKA      FAIR      79  76  90 W5        29.95S                  
MIAMI          FAIR      83  73  72 W3        29.95S                  
WEST KENDALL   FAIR      81  79  94 W3        29.94F                  
HOMESTEAD      FAIR      81  78  90 SW5       29.94S                  

STATION/POSITION SKY/WX   TEMP    WIND        PRES    WAVE   SWELL
                          AIR SEA DIR/SP/G            HT/PER HT/PER
                          (F)     (DEG/KT/KT) (MB)    (FT/S) (FT/S)
VIRGINIA KEY               83 87  270/  3/  8 1013.7
LAKE WORTH                 81 85  300/  8/ 11 1014.3R
FOWEY ROCKS                84 85  260/ 16/ 17 1014.2S
SETTLEMENT POINT           84     280/ 14/ 16 1012.8R

$$